Printer-friendly version

IAU Minor Planet Center

Minor Planet Center

MPEC 2007-W62 : 2007 VZ30

The following Minor Planet Electronic Circular may be linked-to from your own Web pages, but must not otherwise be redistributed electronically.


Read MPEC 2007-W61 Read MPEC 2007-W63


M.P.E.C. 2007-W62                                Issued 2007 Nov. 23, 20:19 UT

     The Minor Planet Electronic Circulars contain information on unusual
         minor planets and routine data on comets.  They are published
   on behalf of Commission 20 of the International Astronomical Union by the
          Minor Planet Center, Smithsonian Astrophysical Observatory,
                          Cambridge, MA 02138, U.S.A.

             Prepared using the Tamkin Foundation Computer Network

                              MPC@CFA.HARVARD.EDU
          URL http://www.cfa.harvard.edu/iau/mpc.html  ISSN 1523-6714

                                   2007 VZ30

Additional Observations:
     K07V30Z  C2002 01 11.43235 09 06 22.07 +23 36 09.4          20.5 R EW062644
     K07V30Z  C2002 01 11.49689 09 06 18.24 +23 36 08.3          20.1 R EW062644
     K07V30Z  C2002 01 11.55985 09 06 14.60 +23 36 07.2          20.1 R EW062644
     K07V30Z  C2002 02 04.34133 08 39 25.15 +23 10 47.9          19.7 R EW062644
     K07V30Z  C2002 02 04.36228 08 39 23.64 +23 10 43.6          20.0 R EW062644
     K07V30Z  C2002 02 04.38336 08 39 22.12 +23 10 39.3          20.2 R EW062644
     K07V30Z  C2002 02 13.23765 08 31 28.85 +22 37 28.5          20.4 R EW062644
     K07V30Z  C2002 02 13.28150 08 31 26.71 +22 37 16.9          20.0 R EW062644

Observer details:
644 Palomar Mountain/NEAT.  Observers E. F. Helin, S. Pravdo, K. Lawrence,
    K. Kuluhiwa, M. Hicks.  Measurer R. Matson.  1.2-m Schmidt + CCD.

Orbital elements:
2007 VZ30                                                Earth MOID = 0.3118 AU
Epoch 2007 Oct. 27.0 TT = JDT 2454400.5                 MPC
M 327.18743              (2000.0)            P               Q
n   0.48487401     Peri.   99.13664     +0.10611314     -0.99429032
a   1.6046616      Node   344.75833     +0.89465665     +0.10040956
e   0.1948515      Incl.    2.45465     +0.43396946     +0.03612048
P   2.03           H   21.2           G   0.15           U   3
Residuals in seconds of arc
020111 644  0.3+  0.2+    071019 691  0.1+  0.2+    071118 689  0.0   1.1+
020111 644  0.2+  0.3-    071102 691  0.1+  0.1-    071118 689  0.1-  0.3-
020111 644  0.2-  0.3+    071102 691  0.2-  0.1+    071118 689  0.4+  0.5-
020204 644  0.5-  0.4+    071102 691  0.2+  0.1+    071119 448  0.3+  0.1-
020204 644  0.4-  0.1+    071104 691  0.4-  0.1-    071119 448  0.4-  0.3-
020204 644  0.4-  0.1-    071104 691  0.0   0.3-    071119 448  0.4+  0.1-
020213 644  0.4+  0.0     071104 691  0.0   0.2+    071119 689  0.4+  0.1-
020213 644  0.7+  0.1-    071107 704  1.4-  0.6-    071119 689  0.3+  0.2+
071019 691  0.3-  0.0     071107 704  0.1+  0.0
071019 691  0.3+  0.2+    071107 704  1.2+  0.2+

Ephemeris:
2007 VZ30                a,e,i = 1.60, 0.19, 2                   q = 1.2920
Date    TT    R. A. (2000) Decl.     Delta      r     Elong.  Phase     V
2007 11 16    02 16.34   +22 36.7    0.351    1.330   163.9    11.9    20.3
2007 11 26    02 09.40   +22 13.0    0.357    1.316   153.2    19.8    20.6
2007 12 06    02 08.09   +21 53.1    0.375    1.305   143.1    26.9    20.9
2007 12 16    02 13.22   +21 48.3    0.402    1.297   134.4    32.9    21.2
2007 12 26    02 24.51   +22 02.5    0.436    1.293   126.9    37.4    21.5
2008 01 05    02 41.01   +22 32.7    0.475    1.292   120.7    40.9    21.7
2008 01 15    03 01.81   +23 13.8    0.520    1.295   115.4    43.3    22.0

Gareth V. Williams           (C) Copyright 2007 MPC           M.P.E.C. 2007-W62

Read MPEC 2007-W61 Read MPEC 2007-W63


Our Web policy. Index to the CBAT/MPC/ICQ pages.


Valid HTML 4.01!